Change the Weather History Date:

Wednesday, December 5, 2012

  Actual Average Record
Temperature  
Mean Temperature 40 °F -  
Max Temperature 46 °F 34 °F 48 °F (2008)
Min Temperature 33 °F 22 °F 17 °F (2000)
Degree Days  
Heating Degree Days 26    
Moisture  
Dew Point 41 °F    
Average Humidity 97    
Maximum Humidity 100    
Minimum Humidity 87    
Precipitation  
Precipitation 0.00 in 0.19 in - ()
Sea Level Pressure  
Sea Level Pressure 30.02 in    
Wind  
Wind Speed 10 mph ()    
Max Wind Speed 21 mph    
Max Gust Speed 25 mph    
Visibility 9.1 miles    
Events Fog , Rain    
Averages and records for this station are not official NWS values.
T = Trace of Precipitation, MM = Missing Value Source: Averaged Metar Reports

Daily Weather History Graph

Daily Weather History Graph

Search for Another Location

Airport or City:

Trip Planner

Search our weather history database for the weather conditions in past years. The results will help you decide how hot, cold, wet, or windy it might be!

Date:

Astronomy

Dec. 05, 2012 Rise Set
Actual Time 7:33 AM NST 4:09 PM NST
Civil Twilight 6:57 AM NST 4:45 PM NST
Nautical Twilight 6:19 AM NST 5:24 PM NST
Astronomical Twilight 5:41 AM NST 6:01 PM NST
Moon 11:14 PM NST (12/5) 11:34 AM NST (12/5)
Length of Visible Light 9h 47m
Length of Day
8h 36m
Waning Gibbous, 60% of the Moon is Illuminated
Dec 5
Waning Gibbous
Dec 6
Last Quarter
Dec 13
New
Dec 20
First Quarter
Dec 28
Full

Hourly Weather History & Observations

Time (NST) Temp. Windchill Dew Point Humidity Pressure Visibility Wind Dir Wind Speed Gust Speed Precip Events Conditions
12:30 AM 41.0 °F 37.1 °F 39.2 °F 93% 30.23 in 15.0 mi SW 5.8 mph - N/A   Mostly Cloudy
1:30 AM 39.2 °F 35.9 °F 37.4 °F 93% 30.22 in 15.0 mi South 4.6 mph - N/A   Mostly Cloudy
1:49 AM 37.4 °F 31.4 °F 35.6 °F 93% 30.22 in 0.5 mi South 8.1 mph - N/A Fog Fog
2:30 AM 35 °F - 35 °F 100% 30.22 in 0 mi South 5.8 mph - - Fog Partial Fog
2:30 AM 35.6 °F 32.8 °F 35.6 °F 100% 30.22 in 0.5 mi SW 3.5 mph - N/A Fog Fog
3:06 AM 35.6 °F 31.7 °F 35.6 °F 100% 30.21 in 6.0 mi South 4.6 mph - N/A Fog Scattered Clouds
3:30 AM 35.6 °F 29.2 °F 33.8 °F 93% 30.20 in 15.0 mi South 8.1 mph - N/A Fog Partly Cloudy
4:30 AM 35.6 °F 31.7 °F 32.0 °F 87% 30.19 in 15.0 mi SSW 4.6 mph - N/A Fog Partly Cloudy
5:30 AM 33.8 °F 25.8 °F 33.8 °F 100% 30.17 in 15.0 mi South 10.4 mph - N/A   Partly Cloudy
6:30 AM 35.6 °F 30.7 °F 33.8 °F 93% 30.16 in 15.0 mi SW 5.8 mph - N/A Fog Partly Cloudy
7:30 AM 35.6 °F 29.2 °F 33.8 °F 93% 30.15 in 15.0 mi South 8.1 mph - N/A Fog Partly Cloudy
8:30 AM 39 °F - 38 °F 94% 30.14 in 15 mi South 12.7 mph - -   Partly Cloudy
8:30 AM 39.2 °F 31.2 °F 37.4 °F 93% 30.14 in 15.0 mi South 13.8 mph - N/A   Mostly Cloudy
9:30 AM 41.0 °F 34.3 °F 41.0 °F 100% 30.12 in 15.0 mi SSW 11.5 mph 18.4 mph N/A   Scattered Clouds
11:30 AM 44.6 °F 37.4 °F 42.8 °F 93% 30.07 in 15.0 mi South 16.1 mph - N/A   Mostly Cloudy
12:30 PM 46.4 °F 39.5 °F 44.6 °F 93% 30.04 in 15.0 mi South 17.3 mph 24.2 mph N/A   Scattered Clouds
1:10 PM 46.4 °F 39.2 °F 44.6 °F 93% 30.02 in 15.0 mi South 18.4 mph 25.3 mph N/A   Overcast
1:30 PM 46.4 °F 39.5 °F 44.6 °F 93% 30.01 in 15.0 mi South 17.3 mph 24.2 mph N/A   Overcast
1:59 PM 44.6 °F 37.8 °F 44.6 °F 100% 29.99 in 5.0 mi South 15.0 mph 23.0 mph N/A   Overcast
2:30 PM 45 °F - 44 °F 96% 29.99 in 15 mi South 17.3 mph - -   Mist
2:30 PM 44.6 °F 37.2 °F 44.6 °F 100% 29.99 in 15.0 mi South 17.3 mph - N/A   Overcast
3:30 PM 44.6 °F 36.4 °F 44.6 °F 100% 29.96 in 5.0 mi South 20.7 mph - N/A   Overcast
3:57 PM 44.6 °F 37.8 °F 44.6 °F 100% 29.96 in 12.0 mi South 15.0 mph 23.0 mph N/A   Overcast
4:30 PM 44.6 °F 38.1 °F 44.6 °F 100% 29.95 in 10.0 mi South 13.8 mph - N/A   Overcast
5:22 PM 42.8 °F 34.8 °F 42.8 °F 100% 29.93 in 4.0 mi South 17.3 mph - N/A   Overcast
5:30 PM 42.8 °F 35.4 °F 42.8 °F 100% 29.93 in 1.0 mi South 15.0 mph 20.7 mph N/A   Mist
6:30 PM 42.8 °F 35.4 °F 42.8 °F 100% 29.91 in 1.5 mi South 15.0 mph - N/A   Mist
7:10 PM 42.8 °F 36.6 °F 42.8 °F 100% 29.90 in 1.5 mi SSW 11.5 mph - N/A   Light Drizzle
7:30 PM 44.6 °F 38.4 °F 44.6 °F 100% 29.89 in 2.5 mi SSW 12.7 mph - N/A   Light Drizzle
7:49 PM 44.6 °F 38.1 °F 44.6 °F 100% 29.88 in 5.0 mi SSW 13.8 mph 20.7 mph N/A   Mostly Cloudy
8:30 PM 44 °F - 44 °F 99% 29.87 in 5 mi SSW 12.7 mph - - Rain Light Drizzle
8:30 PM 44.6 °F 38.4 °F 44.6 °F 100% 29.86 in 5.0 mi SSW 12.7 mph - N/A   Mostly Cloudy
8:55 PM 44.6 °F 38.1 °F 44.6 °F 100% 29.86 in 4.0 mi SSW 13.8 mph - N/A   Mostly Cloudy
9:07 PM 44.6 °F 38.4 °F 44.6 °F 100% 29.86 in 3.0 mi SSW 12.7 mph 19.6 mph N/A   Light Drizzle
9:30 PM 44.6 °F 39.7 °F 44.6 °F 100% 29.86 in 4.0 mi SSW 9.2 mph - N/A   Light Drizzle
10:30 PM 44.6 °F 37.8 °F 42.8 °F 93% 29.83 in 8.0 mi SSW 15.0 mph 21.9 mph N/A   Mostly Cloudy
11:30 PM 42.8 °F 34.8 °F 41.0 °F 93% 29.83 in - SW 17.3 mph - N/A   Mostly Cloudy
11:51 PM 42.8 °F 36.2 °F 42.8 °F 100% 29.83 in 12.0 mi SW 12.7 mph 19.6 mph N/A   Light Drizzle